| time (UTC) | temp F | wind direction | speed knots | gust knots | rain 1hr in | rain 24hr in | rain mn in | humidity % | barometer mb |
| 20260505064005 | 64 | 105 | 1.7 | 2.6 | 0.00 | 0.00 | 0.00 | 78 | 1009.3 |
| 20260505063506 | 62 | 233 | 0.0 | 2.6 | 0.00 | 0.00 | 0.00 | 79 | 1009.5 |
| 20260505063005 | 62 | 240 | 0.0 | 2.6 | 0.00 | 0.00 | 0.00 | 81 | 1009.5 |
| 20260505061506 | 58 | 292 | 0.0 | 0.0 | 0.00 | 0.00 | 0.00 | 87 | 1009.7 |
| 20260505061006 | 57 | 287 | 0.0 | 0.0 | 0.00 | 0.00 | 0.00 | 89 | 1009.5 |
| 20260505060005 | 55 | 284 | 0.0 | 0.0 | 0.00 | 0.00 | 0.00 | 93 | 1009.7 |
| 20260505054505 | 53 | 284 | 0.0 | 1.7 | 0.00 | 0.00 | 0.00 | 94 | 1009.5 |
| 20260505054006 | 53 | 276 | 0.0 | 0.0 | 0.00 | 0.00 | 0.00 | 95 | 1009.5 |
| 20260505053506 | 53 | 276 | 0.0 | 0.0 | 0.00 | 0.00 | 0.00 | 95 | 1009.7 |
| 20260505053005 | 53 | 276 | 0.0 | 0.0 | 0.00 | 0.00 | 0.00 | 95 | 1009.5 |
| 20260505051506 | 53 | 275 | 0.0 | 0.0 | 0.00 | 0.00 | 0.00 | 95 | 1009.1 |
| 20260505051005 | 53 | 275 | 0.0 | 0.0 | 0.00 | 0.00 | 0.00 | 95 | 1009.5 |
| 20260505050505 | 53 | 275 | 0.0 | 0.0 | 0.00 | 0.00 | 0.00 | 95 | 1009.4 |
| 20260505041505 | 53 | 276 | 0.0 | 0.0 | 0.00 | 0.00 | 0.00 | 96 | 1009.6 |
| 20260505040506 | 53 | 276 | 0.0 | 0.0 | 0.00 | 0.00 | 0.00 | 96 | 1009.8 |
| 20260505034505 | 53 | 276 | 0.0 | 0.0 | 0.00 | 0.00 | 0.00 | 96 | 1009.6 |
| 20260505033506 | 53 | 276 | 0.0 | 0.0 | 0.00 | 0.00 | 0.00 | 96 | 1009.8 |
| 20260505033005 | 53 | 276 | 0.0 | 0.0 | 0.00 | 0.00 | 0.00 | 96 | 1009.8 |
| 20260505031506 | 52 | 276 | 0.0 | 0.0 | 0.00 | 0.00 | 0.00 | 95 | 1010.2 |
| 20260505031005 | 52 | 276 | 0.0 | 0.0 | 0.00 | 0.00 | 0.00 | 95 | 1009.9 |
| 20260505030505 | 52 | 276 | 0.0 | 0.0 | 0.00 | 0.00 | 0.00 | 95 | 1010.2 |
| 20260505030005 | 52 | 276 | 0.0 | 0.0 | 0.00 | 0.00 | 0.00 | 95 | 1010.2 |
| 20260505024005 | 51 | 276 | 0.0 | 0.0 | 0.00 | 0.00 | 0.00 | 95 | 1010.2 |
| 20260505023006 | 51 | 276 | 0.0 | 0.0 | 0.00 | 0.00 | 0.00 | 95 | 1010.5 |
| 20260505021506 | 52 | 273 | 0.0 | 0.0 | 0.00 | 0.00 | 0.00 | 95 | 1010.5 |
| 20260505021005 | 52 | 275 | 0.0 | 0.0 | 0.00 | 0.00 | 0.00 | 95 | 1010.5 |
| 20260505020505 | 52 | 275 | 0.0 | 0.0 | 0.00 | 0.00 | 0.00 | 95 | 1010.6 |
| 20260505020005 | 53 | 275 | 0.0 | 1.7 | 0.00 | 0.00 | 0.00 | 95 | 1010.5 |
| 20260505014505 | 53 | 276 | 0.0 | 0.0 | 0.00 | 0.00 | 0.00 | 94 | 1010.8 |
| 20260505014004 | 53 | 276 | 0.0 | 0.0 | 0.00 | 0.00 | 0.00 | 94 | 1010.8 |
| 20260505011506 | 53 | 274 | 0.0 | 0.0 | 0.00 | 0.00 | 0.00 | 94 | 1010.8 |
| 20260505011005 | 54 | 275 | 0.0 | 0.0 | 0.00 | 0.00 | 0.00 | 94 | 1010.8 |
| 20260505010505 | 53 | 275 | 0.0 | 1.7 | 0.00 | 0.00 | 0.00 | 94 | 1011.1 |
| 20260505010005 | 53 | 275 | 0.9 | 2.6 | 0.00 | 0.00 | 0.00 | 94 | 1011.2 |
| 20260505004505 | 53 | 277 | 0.0 | 0.0 | 0.00 | 0.00 | 0.00 | 94 | 1011.2 |
| 20260505004005 | 53 | 278 | 0.0 | 0.0 | 0.00 | 0.00 | 0.00 | 94 | 1011.2 |
| 20260505003506 | 53 | 277 | 0.0 | 0.0 | 0.00 | 0.00 | 0.00 | 94 | 1011.2 |
| 20260505003004 | 53 | 277 | 0.0 | 0.0 | 0.00 | 0.00 | 0.00 | 94 | 1011.2 |
| 20260505001506 | 54 | 277 | 0.0 | 0.0 | 0.00 | 0.00 | 0.00 | 93 | 1011.2 |
| 20260505001005 | 54 | 277 | 0.0 | 0.0 | 0.00 | 0.00 | 0.00 | 93 | 1011.2 |
| 20260505000506 | 54 | 277 | 0.0 | 0.0 | 0.00 | 0.00 | 0.00 | 93 | 1011.2 |
| 20260505000005 | 54 | 277 | 0.0 | 0.0 | 0.00 | 0.00 | 0.00 | 93 | 1011.2 |
| 20260504234505 | 55 | 278 | 0.0 | 0.0 | 0.00 | 0.00 | 0.00 | 92 | 1011.5 |
| 20260504234004 | 55 | 277 | 0.0 | 0.0 | 0.00 | 0.00 | 0.00 | 92 | 1011.5 |
| 20260504233505 | 55 | 277 | 0.0 | 0.0 | 0.00 | 0.00 | 0.00 | 92 | 1011.5 |
| 20260504233005 | 55 | 277 | 0.0 | 0.0 | 0.00 | 0.00 | 0.00 | 92 | 1011.5 |
| 20260504231505 | 55 | 277 | 0.0 | 0.0 | 0.00 | 0.00 | 0.00 | 91 | 1011.5 |
| 20260504230504 | 55 | 278 | 0.0 | 0.0 | 0.00 | 0.00 | 0.00 | 91 | 1011.9 |
| 20260504230005 | 55 | 277 | 0.0 | 0.0 | 0.00 | 0.00 | 0.00 | 91 | 1011.9 |
| 20260504224505 | 56 | 278 | 0.0 | 0.0 | 0.00 | 0.00 | 0.00 | 90 | 1012.2 |
| 20260504224004 | 56 | 278 | 0.0 | 0.0 | 0.00 | 0.00 | 0.00 | 89 | 1011.9 |
| 20260504223505 | 56 | 277 | 0.0 | 0.0 | 0.00 | 0.00 | 0.00 | 89 | 1011.9 |
| 20260504223005 | 56 | 278 | 0.0 | 0.0 | 0.00 | 0.00 | 0.00 | 89 | 1012.2 |
| 20260504221506 | 56 | 278 | 0.0 | 0.0 | 0.00 | 0.00 | 0.00 | 88 | 1012.2 |
| 20260504221005 | 56 | 278 | 0.0 | 0.0 | 0.00 | 0.00 | 0.00 | 87 | 1012.2 |
| 20260504220505 | 56 | 278 | 0.0 | 0.0 | 0.00 | 0.00 | 0.00 | 87 | 1012.2 |
| 20260504220004 | 56 | 278 | 0.0 | 0.0 | 0.00 | 0.00 | 0.00 | 88 | 1012.2 |
| 20260504214505 | 57 | 277 | 0.0 | 0.0 | 0.00 | 0.00 | 0.00 | 86 | 1012.5 |
| 20260504213505 | 57 | 277 | 0.0 | 0.0 | 0.00 | 0.00 | 0.00 | 87 | 1012.3 |
| 20260504211506 | 57 | 277 | 0.0 | 0.0 | 0.00 | 0.00 | 0.00 | 86 | 1012.2 |
| 20260504211004 | 57 | 277 | 0.0 | 1.7 | 0.00 | 0.00 | 0.00 | 86 | 1012.4 |
| 20260504210505 | 57 | 278 | 1.7 | 1.7 | 0.00 | 0.00 | 0.00 | 86 | 1012.5 |
| 20260504210004 | 57 | 278 | 1.7 | 2.6 | 0.00 | 0.00 | 0.00 | 86 | 1012.5 |
| 20260504204504 | 57 | 277 | 0.0 | 0.0 | 0.00 | 0.00 | 0.00 | 86 | 1012.9 |
| 20260504204005 | 58 | 277 | 0.0 | 1.7 | 0.00 | 0.00 | 0.00 | 86 | 1012.5 |
| 20260504203505 | 58 | 278 | 0.0 | 1.7 | 0.00 | 0.00 | 0.00 | 85 | 1012.5 |
| 20260504203005 | 58 | 277 | 0.0 | 2.6 | 0.00 | 0.00 | 0.00 | 85 | 1012.6 |
| 20260504201004 | 58 | 276 | 0.0 | 0.0 | 0.00 | 0.00 | 0.00 | 85 | 1012.7 |
| 20260504200004 | 58 | 276 | 0.0 | 0.0 | 0.00 | 0.00 | 0.00 | 85 | 1012.5 |
| 20260504194505 | 58 | 276 | 0.0 | 1.7 | 0.00 | 0.00 | 0.00 | 85 | 1012.2 |
| 20260504194005 | 58 | 276 | 0.9 | 1.7 | 0.00 | 0.00 | 0.00 | 85 | 1012.3 |
| 20260504193506 | 58 | 274 | 0.0 | 0.0 | 0.00 | 0.00 | 0.00 | 85 | 1012.5 |
| 20260504191505 | 59 | 274 | 0.0 | 0.0 | 0.00 | 0.00 | 0.00 | 84 | 1012.2 |
| 20260504191005 | 59 | 274 | 0.0 | 0.0 | 0.00 | 0.00 | 0.00 | 84 | 1012.2 |
| 20260504190505 | 59 | 274 | 0.0 | 0.0 | 0.00 | 0.00 | 0.00 | 83 | 1012.2 |
| 20260504190004 | 59 | 274 | 0.0 | 0.0 | 0.00 | 0.00 | 0.00 | 82 | 1012.3 |
| 20260504184505 | 60 | 274 | 0.0 | 0.0 | 0.00 | 0.00 | 0.00 | 81 | 1012.2 |
| 20260504184005 | 60 | 274 | 0.0 | 0.0 | 0.00 | 0.00 | 0.00 | 81 | 1012.2 |
| 20260504183505 | 60 | 274 | 0.0 | 0.0 | 0.00 | 0.00 | 0.00 | 81 | 1012.5 |
| 20260504183004 | 60 | 274 | 0.0 | 0.0 | 0.00 | 0.00 | 0.00 | 81 | 1012.2 |
| 20260504181504 | 61 | 274 | 0.0 | 0.0 | 0.00 | 0.00 | 0.00 | 79 | 1012.2 |
| 20260504181005 | 62 | 274 | 0.0 | 0.0 | 0.00 | 0.00 | 0.00 | 79 | 1012.2 |
| 20260504180505 | 62 | 274 | 0.0 | 0.0 | 0.00 | 0.00 | 0.00 | 78 | 1012.3 |
| 20260504180005 | 62 | 274 | 0.0 | 0.0 | 0.00 | 0.00 | 0.00 | 78 | 1012.2 |
| 20260504174504 | 62 | 274 | 0.0 | 0.0 | 0.00 | 0.00 | 0.00 | 77 | 1012.5 |
| 20260504173505 | 62 | 274 | 0.0 | 0.0 | 0.00 | 0.00 | 0.00 | 76 | 1012.3 |
| 20260504171506 | 62 | 274 | 0.0 | 0.0 | 0.00 | 0.00 | 0.00 | 78 | 1012.5 |
| 20260504171004 | 63 | 274 | 0.0 | 0.0 | 0.00 | 0.00 | 0.00 | 78 | 1012.5 |
| 20260504170504 | 62 | 274 | 0.0 | 1.7 | 0.00 | 0.00 | 0.00 | 78 | 1012.5 |
| 20260504151005 | 66 | 282 | 1.7 | 4.3 | 0.00 | 0.00 | 0.00 | 66 | 1012.7 |
| 20260504150505 | 66 | 263 | 1.7 | 2.6 | 0.00 | 0.00 | 0.00 | 65 | 1012.5 |
| 20260504141004 | 66 | 208 | 2.6 | 11.3 | 0.00 | 0.00 | 0.00 | 64 | 1012.5 |
| 20260504140504 | 66 | 276 | 2.6 | 6.1 | 0.00 | 0.00 | 0.00 | 64 | 1012.9 |
| 20260504130504 | 67 | 284 | 5.2 | 8.7 | 0.00 | 0.00 | 0.00 | 62 | 1012.9 |
| 20260504110505 | 69 | 1 | 1.7 | 6.1 | 0.00 | 0.00 | 0.00 | 59 | 1012.9 |
| 20260504081506 | 60 | 145 | 0.0 | 2.6 | 0.00 | 0.00 | 0.00 | 70 | 1014.0 |
| 20260504081006 | 59 | 169 | 0.0 | 2.6 | 0.00 | 0.00 | 0.00 | 74 | 1013.9 |
| 20260504080505 | 57 | 157 | 0.9 | 2.6 | 0.00 | 0.00 | 0.00 | 75 | 1013.9 |